カタログに戻る

CZ-6A DEB

運用中PO
NORAD 64639·DEBRIS·🇨🇳 China

打ち上げ Aug 6, 2024 から Taiyuan Satellite Launch Center

Loading…

次のパス (今後24時間)

TLE

最新Source: Space-Track

元期: Sep 14, 2026, 05:51 UTC

1 64639U 24140AED 26257.24395741  .00000249  00000-0  15154-3 0  9990
2 64639  88.8317 253.3394 0142028 349.2495  10.5654 13.98365156101603

AllMySatでCZ-6A DEBをリアルタイム追跡

Download on the App Store